This is the latest recevied weather packets stored in our database for station/object W4MLN-3. If no packets are shown the sender has not sent any weather packets the latest 10 day(s).
| Time | Temp. | Humidity | Pressure | Rain* | Wind** | Luminosity | Snow |
|---|---|---|---|---|---|---|---|
| 1777642503 | 9.44° C | 61% | 1014 hPa | 0 mm | - | - | - |
| 1777642225 | 9.44° C | 62% | 1014.1 hPa | 0 mm | - | - | - |
| 1777641903 | 8.89° C | 63% | 1014 hPa | 0 mm | - | - | - |
| 1777641603 | 8.89° C | 67% | 1014 hPa | 0 mm | - | - | - |
| 1777641324 | 8.33° C | 68% | 1014 hPa | 0 mm | - | - | - |
| 1777641003 | 7.78° C | 68% | 1013.9 hPa | 0 mm | - | - | - |
| 1777640704 | 7.78° C | 71% | 1013.8 hPa | 0 mm | - | - | - |
| 1777640403 | 7.78° C | 71% | 1013.9 hPa | 0 mm | - | - | - |
| 1777640124 | 7.78° C | 70% | 1013.9 hPa | 0 mm | - | - | - |
| 1777639824 | 7.22° C | 69% | 1013.8 hPa | 0 mm | - | - | - |
| 1777639503 | 7.22° C | 71% | 1013.9 hPa | 0 mm | - | - | - |
| 1777639203 | 7.22° C | 71% | 1013.9 hPa | 0 mm | - | - | - |
| 1777638903 | 6.67° C | 66% | 1014 hPa | 0 mm | - | - | - |
| 1777638603 | 6.67° C | 68% | 1013.9 hPa | 0 mm | - | - | - |
| 1777638325 | 6.11° C | 69% | 1013.9 hPa | 0 mm | - | - | - |
| 1777638004 | 6.11° C | 73% | 1014.2 hPa | 0 mm | - | - | - |
| 1777637704 | 5.56° C | 74% | 1014.1 hPa | 0 mm | - | - | - |
| 1777637403 | 5.56° C | 74% | 1014.1 hPa | 0 mm | - | - | - |
| 1777637124 | 5.56° C | 75% | 1014.1 hPa | 0 mm | - | - | - |
| 1777636803 | 5.56° C | 75% | 1014 hPa | 0 mm | - | - | - |
| 1777636503 | 5.56° C | 77% | 1014 hPa | 0 mm | - | - | - |
| 1777636224 | 5.56° C | 80% | 1014 hPa | 0 mm | - | - | - |
| 1777635904 | 5.56° C | 80% | 1013.9 hPa | 0 mm | - | - | - |
| 1777635603 | 5.56° C | 81% | 1013.9 hPa | 0 mm | - | - | - |
| 1777635303 | 5.56° C | 81% | 1013.8 hPa | 0 mm | - | - | - |
* Rain latest hour (hover to see other rain measurements)
** Current wind speed in m/s (hover to see current wind gust speed)